Estación de Petorca
Ultimos registro cada 15 minutos 49
| N° | Estación | Fecha / Hora | Temperatura | Humedad | Lluvia | Velocidad | Dirección | Radiación | Presion |
| 49 | Petorca | 02-09-2026 12:00 | 19,2 | 70,5 | 0 | 0 | 239 | 343,1 | 986,7 |
| 48 | Petorca | 02-09-2026 11:45 | 19,1 | 71,9 | 0 | 0 | 38 | 329,4 | 986,6 |
| 47 | Petorca | 02-09-2026 11:30 | 18,4 | 74 | 0 | 0 | 240 | 311,9 | 986,6 |
| 46 | Petorca | 02-09-2026 11:15 | 18,1 | 76,8 | 0 | 0 | 241 | 303,1 | 986,7 |
| 45 | Petorca | 02-09-2026 11:00 | 17,8 | 76,5 | 0 | 0 | 197 | 319,4 | 986,5 |
| 44 | Petorca | 02-09-2026 10:45 | 17,1 | 75,3 | 0 | 0 | 243 | 285,6 | 986,5 |
| 43 | Petorca | 02-09-2026 10:30 | 16,7 | 76,7 | 0 | 0 | 244 | 276,9 | 986,3 |
| 42 | Petorca | 02-09-2026 10:15 | 16 | 79,1 | 0 | 0 | 197 | 275,6 | 986,6 |
| 41 | Petorca | 02-09-2026 10:00 | 15,9 | 80 | 0 | 0 | 174 | 258,1 | 986,6 |
| 40 | Petorca | 02-09-2026 09:45 | 16,3 | 78,8 | 0 | 0 | 93 | 269,4 | 986,7 |
| 39 | Petorca | 02-09-2026 09:30 | 15,3 | 83,1 | 0 | 0 | 161 | 235,6 | 986,7 |
| 38 | Petorca | 02-09-2026 09:15 | 14,9 | 84,6 | 0 | 0,5 | 154 | 295,6 | 987 |
| 37 | Petorca | 02-09-2026 09:00 | 14,3 | 85,7 | 0 | 0 | 128 | 274,4 | 986,8 |
| 36 | Petorca | 02-09-2026 08:45 | 14,6 | 85,9 | 0 | 0 | 206 | 315,6 | 986,9 |
| 35 | Petorca | 02-09-2026 08:30 | 13,2 | 91 | 0 | 0 | 320 | 115,6 | 987,1 |
| 34 | Petorca | 02-09-2026 08:15 | 12,4 | 94,2 | 0 | 0,5 | 22 | 101,9 | 986,9 |
| 33 | Petorca | 02-09-2026 08:00 | 11,6 | 96,3 | 0 | 0 | 133 | 75,6 | 986,8 |
| 32 | Petorca | 02-09-2026 07:45 | 10,7 | 96,5 | 0 | 0 | 8 | 54,4 | 986,6 |
| 31 | Petorca | 02-09-2026 07:30 | 9,9 | 96,9 | 0 | 0 | 35 | 29,4 | 986 |
| 30 | Petorca | 02-09-2026 07:15 | 9,9 | 96,8 | 0 | 0 | 27 | 11,9 | 985,6 |
| 29 | Petorca | 02-09-2026 07:00 | 9,8 | 96,8 | 0 | 0 | 351 | 0,6 | 985,5 |
| 28 | Petorca | 02-09-2026 06:45 | 9,8 | 96,5 | 0 | 0 | 58 | 0,6 | 985,4 |
| 27 | Petorca | 02-09-2026 06:30 | 10,2 | 96,8 | 0 | 0 | 20 | 0,6 | 985,4 |
| 26 | Petorca | 02-09-2026 06:15 | 10,1 | 96,6 | 0 | 0 | 25 | 0,6 | 985,5 |
| 25 | Petorca | 02-09-2026 06:00 | 9,7 | 96,3 | 0 | 0 | 31 | 0,6 | 985,4 |
| 24 | Petorca | 02-09-2026 05:45 | 10,3 | 96 | 0 | 0 | 13 | 0,6 | 985,6 |
| 23 | Petorca | 02-09-2026 05:30 | 10,4 | 95,8 | 0 | 0 | 27 | 0,6 | 985,5 |
| 22 | Petorca | 02-09-2026 05:15 | 10,9 | 95,7 | 0 | 0,5 | 52 | 0,6 | 985,8 |
| 21 | Petorca | 02-09-2026 05:00 | 10,7 | 95,7 | 0 | 0 | 357 | 0,6 | 985,8 |
| 20 | Petorca | 02-09-2026 04:45 | 11,2 | 95,1 | 0 | 0 | 111 | 0,6 | 986,1 |
| 19 | Petorca | 02-09-2026 04:30 | 11,3 | 95,9 | 0 | 0 | 35 | 0,6 | 986 |
| 18 | Petorca | 02-09-2026 04:15 | 11,1 | 96,4 | 0 | 0 | 7 | 0,6 | 986,1 |
| 17 | Petorca | 02-09-2026 04:00 | 10,5 | 96,3 | 0 | 0 | 7 | 0,6 | 986,3 |
| 16 | Petorca | 02-09-2026 03:45 | 10,5 | 95 | 0 | 0 | 22 | 0,6 | 986,3 |
| 15 | Petorca | 02-09-2026 03:30 | 10,8 | 94,6 | 0 | 0 | 38 | 0,6 | 986,1 |
| 14 | Petorca | 02-09-2026 03:15 | 11,2 | 93,7 | 0 | 0 | 45 | 0,6 | 986,5 |
| 13 | Petorca | 02-09-2026 03:00 | 11,6 | 92,1 | 0 | 0 | 77 | 0,6 | 986,4 |
| 12 | Petorca | 02-09-2026 02:45 | 12,7 | 89,5 | 0 | 0 | 131 | 0,6 | 986,4 |
| 11 | Petorca | 02-09-2026 02:30 | 13,1 | 89,7 | 0 | 1 | 239 | 0,6 | 986,6 |
| 10 | Petorca | 02-09-2026 02:15 | 12,2 | 93,6 | 0 | 1 | 17 | 0,6 | 986,6 |
| 9 | Petorca | 02-09-2026 02:00 | 12,3 | 93,9 | 0 | 0,5 | 27 | 0,6 | 986,6 |
| 8 | Petorca | 02-09-2026 01:45 | 12,5 | 93,2 | 0 | 0,5 | 138 | 0,6 | 986,4 |
| 7 | Petorca | 02-09-2026 01:30 | 12,2 | 95 | 0 | 0,5 | 184 | 0,6 | 986,6 |
| 6 | Petorca | 02-09-2026 01:15 | 11,8 | 94,6 | 0 | 0 | 48 | 0,6 | 986 |
| 5 | Petorca | 02-09-2026 01:00 | 11,8 | 94,3 | 0 | 0 | 17 | 0,6 | 985,8 |
| 4 | Petorca | 02-09-2026 00:45 | 11,9 | 94 | 0 | 0 | 58 | 0,6 | 985,8 |
| 3 | Petorca | 02-09-2026 00:30 | 12,3 | 92,5 | 0 | 0 | 166 | 0,6 | 985,9 |
| 2 | Petorca | 02-09-2026 00:15 | 12,6 | 91,3 | 0 | 0 | 188 | 0,6 | 986 |
| 1 | Petorca | 02-09-2026 00:00 | 13,4 | 90,1 | 0 | 0 | 204 | 0,6 | 986,2 |